Flag for Congo Weather past 2 weeks in Brazzaville, Congo

Now
79 °F

Thunderstorms. Passing clouds.


Feels Like: 82 °F
Forecast: 73 / 88 °F
Wind: 8 mph from Northeast

Location: Brazzaville / Maya-Maya

Current Time: Apr 1, 2015 at 1:00:33 AM

Latest Report: Apr 1, 2015 at 12:00 AM


Visibility: 4 mi

Pressure: 29.92 "Hg

Humidity: 84%

Dew point: 73 °F

Location of BrazzavilleLocation

Historic Weather in Brazzaville — Graph

°F

Brazzaville temperature yesterday

Maximum temperature yesterday: 91 °F (at 1:00 PM)
Minimum temperature yesterday: 75 °F (at 12:00 AM)
Average temperature yesterday: 82 °F

Past Weeks' High & Low Weather Summary

 TemperatureHumidityPressure
High95 °F (Mar 25, 3:00 PM)100% (Mar 19, 6:00 AM)30.04 "Hg (Mar 19, 6:00 AM)
Low72 °F (Mar 17, 1:00 AM)41% (Mar 25, 3:00 PM)29.71 "Hg (Mar 18, 3:00 PM)
Average79 °F80%29.87 "Hg
* Reported Mar 16 11:00 PM — Mar 31 11:04 PM, Brazzaville, Weather by CustomWeather, © 2015

Note: Actual official high and low records may vary slightly from our data, if they occured in-between our weather recording intervals... More about our weather records

Advertising

Brazzaville weather history for previous 24 hours

 ConditionsComfort  
Time TempWeatherWind HumidityBarometerVisibility
11:04 PM
Tue, Mar 31
79 °FThunderstorms. Passing clouds.2 mph84%29.89 "Hg4 mi
10:52 PM79 °FThunderstorms. Passing clouds.5 mph84%29.89 "Hg4 mi
9:00 PM81 °FThunderstorms. Passing clouds.3 mph74%29.86 "Hg5 mi
8:00 PM81 °FThunderstorms. Passing clouds.3 mph74%29.86 "Hg5 mi
7:00 PM82 °FThunderstorms. Passing clouds.5 mph74%29.83 "Hg5 mi
6:00 PM84 °FPassing clouds.9 mph70%29.80 "HgN/A
5:00 PM90 °FPassing clouds.7 mph55%29.80 "HgN/A
4:00 PM91 °FPassing clouds.7 mph52%29.80 "HgN/A
3:00 PM91 °FScattered clouds.3 mph52%29.83 "HgN/A
2:00 PM90 °FPartly sunny.6 mph55%29.86 "HgN/A
1:00 PM91 °FPartly sunny.3 mph52%29.89 "HgN/A
12:00 PM88 °FPartly sunny.3 mph59%29.92 "HgN/A
11:00 AM86 °FPartly sunny.2 mph62%29.95 "HgN/A
10:00 AM82 °FPartly sunny.3 mph74%29.98 "HgN/A
9:00 AM79 °FBroken clouds.5 mph79%N/AN/A
8:00 AM77 °FScattered clouds.6 mph83%29.98 "HgN/A
6:00 AM75 °FPassing clouds.5 mph89%29.92 "Hg5 mi
5:00 AM75 °FPassing clouds.5 mph89%29.92 "Hg5 mi
4:00 AM75 °FPassing clouds.2 mph94%29.89 "Hg5 mi
3:00 AM75 °FPassing clouds.No wind94%29.89 "Hg5 mi
2:00 AM77 °FPassing clouds.3 mph89%29.89 "Hg5 mi
1:00 AM77 °FPassing clouds.5 mph89%29.89 "Hg5 mi
Weather by CustomWeather, © 2015

See weather overviewHow to use our weather pages